OpenBCM V1.08-5-g2f4a (Linux)

Packet Radio Mailbox

IZ3LSV

[San Dona' di P. JN]

 Login: GUEST





  
I0OJJ  > KEPS     11.07.25 17:24l 342 Lines 16338 Bytes #21 (0) @ AMSAT
BID : ORB25192.1
Read: GUEST
Subj: 2Line Orbital Elements 25192.AMSAT
Path: IZ3LSV<ED1ZAC<LU1DBQ<LU9DCE<EA2RCF<I0OJJ
Sent: 250711/0025z @:I0OJJ.ITA.EU [Rome] obcm1.08-10-g596e
From: I0OJJ @ I0OJJ.ITA.EU (Gustavo)
To:   KEPS @ AMSAT
X-Info: This message was generated automatically


QST de W1STR

AMSAT Orbital Elements for Amateur Satellites in TLE Format
From Orbital Analysis Office
New England Sci-Tech STEM Education Center
Natick, MA July 11, 2025
To all radio amateurs


These element sets describe the orbits of various satellites 
in use by the amateur radio community. For details see:
www.amsat.org/keplerian-elements-formats/

A daily update of element sets is available at:
www.amsat.org/tle/daily-bulletin.txt
or without bulletin text:
www.amsat.org/tle/dailytle.txt


AO-07
1 07530U 74089B   25191.61961198 -.00000034  00000-0  78215-4 0  9997
2 07530 101.9933 196.2142 0012610  63.8900  51.8660 12.53690074317716
UO-11
1 14781U 84021B   25191.43732566  .00000816  00000-0  91489-4 0  9990
2 14781  97.7561 157.1997 0006540 227.2045 132.8623 14.89457258206235
AO-27
1 22825U 93061C   25191.61659128  .00000062  00000-0  40970-4 0  9996
2 22825  98.7353 253.3246 0008857  29.4102 330.7577 14.30807747658155
FO-29
1 24278U 96046B   25191.58269544 -.00000015  00000-0  23925-4 0  9991
2 24278  98.5718  81.3920 0348859 262.2631  93.8772 13.53250185426961
NOAA-15
1 25338U 98030A   25191.73334045  .00000153  00000-0  80401-4 0  9994
2 25338  98.5338 216.1128 0008995 267.7592  92.2559 14.26994529412841
GO-32
1 25397U 98043D   25191.53093858  .00000027  00000-0  31593-4 0  9993
2 25397  98.9718 171.2985 0002296 105.6827 254.4604 14.24321237402696
ISS
1 25544U 98067A   25191.80191858  .00007787  00000-0  14191-3 0  9996
2 25544  51.6351 190.0161 0002163   2.7467  55.3035 15.50474527518824
NO-44
1 26931U 01043C   25191.03310331  .00000085  00000-0  62880-4 0  9992
2 26931  67.0510  49.1025 0006222 276.8655  83.1739 14.31746579241469
SO-50
1 27607U 02058C   25191.19557385  .00000871  00000-0  12571-3 0  9993
2 27607  64.5527 106.0265 0059689 327.3657  32.3765 14.81698975213766
CO-55
1 27844U 03031E   25191.59604182  .00000206  00000-0  10867-3 0  9998
2 27844  98.6756 199.4689 0010921  96.7093 263.5329 14.24015713143052
CO-57
1 27848U 03031J   25191.48867076  .00000169  00000-0  93829-4 0  9991
2 27848  98.6784 199.3454 0010687 112.5096 247.7215 14.23347725142760
RS-22
1 27939U 03042A   25191.80483553  .00000626  00000-0  10724-3 0  9994
2 27939  98.3302   2.0150 0010127 271.1560 202.2919 14.72410982165429
CO-58
1 28895U 05043F   25191.33084644  .00001020  00000-0  17413-3 0  9996
2 28895  98.2534 336.0726 0013997 204.9008 155.1524 14.71093016 51465
CO-65
1 32785U 08021C   25191.59726227  .00003368  00000-0  24370-3 0  9993
2 32785  97.7867 162.9971 0011302 105.6831 254.5642 15.04666038933740
CO-66
1 32791U 08021J   25191.46684908  .00006531  00000-0  31272-3 0  9999
2 32791  97.7282 172.2113 0005614  74.7249 285.4605 15.19293008935189
RS-30
1 32953U 08025A   25191.78878925  .00000021  00000-0  79981-4 0  9990
2 32953  82.5009 207.7696 0018745 341.5343  18.5054 12.43166126777414
NOAA-19
1 33591U 09005A   25191.84763408  .00000140  00000-0  98745-4 0  9995
2 33591  98.9961 256.7258 0012673 275.6010  84.3716 14.13387505846521
SRMSAT
1 37841U 11058D   25191.49000544  .00000360  00000-0  51923-4 0  9995
2 37841  19.9734 327.5008 0011858  44.9621  11.3138 14.11443448709481
ZACUBE-1
1 39417U 13066B   25191.60523090  .00002570  00000-0  22520-3 0  9991
2 39417  97.7805 148.4610 0042815 309.6220  50.1226 14.96891901629559
Delfi-N3xt
1 39428U 13066N   25191.75128577  .00002144  00000-0  22175-3 0  9993
2 39428  97.8338 109.0600 0082570 257.7649 101.4311 14.88707940623891
GOMX-1
1 39430U 13066Q   25191.71073644  .00001321  00000-0  21018-3 0  9997
2 39430  97.6807  48.4607 0133816  92.7455 268.9075 14.67739744619972
LO-74
1 39440U 13066AA  25191.56884319  .00002077  00000-0  21281-3 0  9991
2 39440  97.8503 135.9187 0063479  78.1261 282.7066 14.90099316626054
AO-73
1 39444U 13066AE  25191.44773460  .00004426  00000-0  33069-3 0  9993
2 39444  97.7819 153.4859 0040936 282.5216  77.1431 15.02672904628229
DTUSAT-2
1 40030U 14033W   25191.73405538  .00004003  00000-0  26038-3 0  9990
2 40030  98.0564 165.0690 0007941 323.8089  36.2599 15.08590338601601
EO-80
1 40032U 14033Y   25191.68631764  .00003767  00000-0  24481-3 0  9994
2 40032  98.0441 164.6308 0006956 252.0053 108.0416 15.08664652601581
LILACSAT-2
1 40908U 15049K   25191.74940774  .00007102  00000-0  18282-3 0  9994
2 40908  97.5042 212.8585 0010441  57.2484 302.9766 15.39508691543025
IO-86
1 40931U 15052B   25151.18580175  .00001241  00000-0  78118-4 0  9996
2 40931   6.0006  24.0987 0012733 338.8432  21.1169 14.78805930523047
Horyu-4
1 41340U 16012D   25191.57399614  .00013053  00000-0  33489-3 0  9996
2 41340  30.9969 283.3285 0006458  28.8182 331.2820 15.37992050517567
Lapan A3
1 41603U 16040E   25191.76372714  .00001972  00000-0  70186-4 0  9995
2 41603  97.1367 195.1508 0011887 149.8012 210.3917 15.30031102502554
CAS-2T
1 41847U 16066G   25191.45866857  .00001047  00000-0  15602-3 0  9999
2 41847  98.4194 265.6495 0346999  85.1423 278.9289 14.43574738455477
CAS-4B
1 42759U 17034B   25191.73547343  .00048066  00000-0  43429-3 0  9995
2 42759  43.0051 135.6617 0019711 152.5611 207.6301 15.67088178447488
CAS-4A
1 42761U 17034D   25191.74084341  .00052655  00000-0  44483-3 0  9993
2 42761  43.0090 132.4109 0020903 157.8067 202.3709 15.68662234447513
TechnoSat
1 42829U 17042E   25191.89322958  .00002051  00000-0  16110-3 0  9993
2 42829  97.3851 359.0996 0016724 169.3653 190.7929 15.01838568435424
AO-91
1 43017U 17073E   25191.57768286  .00005734  00000-0  29081-3 0  9992
2 43017  97.5217  61.5646 0172897  61.3048 300.5436 15.05166277413876
S-Net D
1 43186U 18014G   25191.67041916  .00002999  00000-0  17801-3 0  9997
2 43186  97.5600  94.2608 0010645 114.0137 246.2209 15.12057622407077
S-Net B
1 43187U 18014H   25191.67622901  .00003051  00000-0  18110-3 0  9991
2 43187  97.5606  94.2398 0011396 110.2343 250.0114 15.12037016407074
S-Net A
1 43188U 18014J   25191.60452653  .00002995  00000-0  17773-3 0  9990
2 43188  97.5615  94.3230 0011289 111.0596 249.1843 15.12062745407065
S-Net C
1 43189U 18014K   25191.61253734  .00003074  00000-0  18236-3 0  9995
2 43189  97.5630  94.3504 0012861 104.9701 255.2954 15.12032151405611
Ten-Koh
1 43677U 18084G   25191.46854952  .00001392  00000-0  11508-3 0  9992
2 43677  98.0847   4.9465 0008245 150.4068 209.7623 15.00684661364870
PO-101
1 43678U 18084H   25191.70792011  .00002028  00000-0  17511-3 0  9994
2 43678  98.1048   9.0219 0008744 169.8888 190.2511 14.98440491365043
QO-100
1 43700U 18090A   25191.49534483  .00000157  00000-0  00000-0 0  9993
2 43700   0.0214  34.4127 0002755 112.8146 345.5653  1.00272833 24256
MinXSS-2
1 43758U 18099A   25191.14696910  .00009554  00000-0  36795-3 0  9994
2 43758  97.5009 257.2944 0012421  55.0495 305.1908 15.26500547361630
AO-95
1 43770U 18099N   25191.70716477  .00005483  00000-0  27502-3 0  9994
2 43770  97.4900 249.4544 0012205 104.2983 255.9607 15.17679841361273
RANGE-A
1 43773U 18099R   25191.09954188  .00002493  00000-0  15998-3 0  9996
2 43773  97.4459 238.6171 0012874  88.7831 271.4873 15.09312333360820
MOVE-II
1 43780U 18099Y   25191.71447025  .01547971  17659-2  16091-2 0  9990
2 43780  97.4568 270.3342 0013188 257.6793 102.3015 16.10815467362747
SNUSat 2
1 43782U 18099AA  25191.38912969  .00003713  00000-0  20214-3 0  9992
2 43782  97.4581 245.6389 0013009  53.5539 306.6890 15.14977586361162
SnugLite
1 43784U 18099AC  25191.59866596  .00004720  00000-0  23529-3 0  9992
2 43784  97.4394 245.4687 0004696  65.3721 294.8002 15.18018359361342
ITASat 1
1 43786U 18099AE  25191.56165508  .00004162  00000-0  23709-3 0  9996
2 43786  97.4548 245.2256 0015911  99.6862 260.6167 15.13244061361140
EAGLET 1
1 43790U 18099AJ  25191.11654728  .00002322  00000-0  14951-3 0  9994
2 43790  97.4745 244.6451 0013594  86.3726 273.9058 15.09259783360676
ESEO
1 43792U 18099AL  25191.89896913  .00000427  00000-0  36244-4 0  9999
2 43792  97.4437 238.2519 0014006  58.3197 301.9392 15.02696728360524
CSIM
1 43793U 18099AM  25191.75515057  .00078075  00000-0  35482-3 0  9998
2 43793  97.4767 272.2436 0001812 145.3514 214.7873 15.83657447362563
JO-97
1 43803U 18099AX  25191.56817003  .00006557  00000-0  29512-3 0  9998
2 43803  97.4647 250.3760 0008199  48.2051 311.9884 15.21397443361482
Suomi 100
1 43804U 18099AY  25191.10630073  .00006185  00000-0  29937-3 0  9997
2 43804  97.4713 249.1255 0013084  48.3270 311.9082 15.18859018361336
ISAT
1 43879U 18111D   25191.55267991  .00010823  00000-0  36502-3 0  9998
2 43879  97.5943 106.6483 0010818  90.4766 269.7714 15.30844452358433
UWE-4
1 43880U 18111E   25191.55092285  .00007703  00000-0  29626-3 0  9994
2 43880  97.5887 104.9042 0013906 100.7810 259.4994 15.26605027358355
Sparrow
1 43881U 18111F   25191.50907786  .00011780  00000-0  38163-3 0  9997
2 43881  97.6089 109.6038 0008806 121.1003 239.1103 15.32138632358528
Prox-1
1 44339U 19036A   25191.49317555  .00005289  00000-0  64274-3 0  9999
2 44339  23.9951 218.6582 0007846  68.1802 291.9529 14.80439805322608
SONATE
1 44400U 19038Q   25185.47540524  .09032085  27445-5  31847-3 0  9995
2 44400  97.6609 216.4776 0012462 246.7970 113.2018 16.43248376333575
Taurus 1
1 44530U 19059C   25191.71333001  .00002743  00000-0  50854-3 0  9997
2 44530  98.6100 332.5947 0007931 299.9079  60.1335 14.66124555308503
Duchifat 3
1 44854U 19089C   25191.58938397  .00026465  00000-0  47882-3 0  9997
2 44854  36.9406 157.6841 0006245 227.2880 132.7352 15.48795332307755
TO-108
1 44881U 19093C   25191.94642330  .00000563  00000-0  71060-4 0  9998
2 44881  97.7918 266.9401 0015014 125.4763 234.7856 14.85651490300736
